Location: Engelmannsreuth
(49.8125°N, 11.6497°E)
Time: 15:30:34
(UTC+00:00)

CZ-4B DEB - Pass Details

Date: 17 February 2020
Orbit: 840 x 862 km, 99.1° (Epoch: 27 March)

Event Time Altitude Azimuth Distance (km) Brightness Sun altitude
Rises 04:53:44 0° 15° (NNE) 3,429 7.5 -14.7°
Reaches altitude 10° 04:56:07 10° 15° (NNE) 2,485 6.8 -14.3°
Maximum altitude 05:01:39 89° 290° (WNW) 853 4.2 -13.4°
Drops below altitude 10° 05:07:07 10° 198° (SSW) 2,456 6.5 -12.5°
Sets 05:09:27 0° 198° (SSW) 3,384 7.2 -12.2°
